Voltar ao catálogo

STARLINK-5401

AtivoComunicaçõesVLEO
NORAD 54870·PAYLOAD·🇺🇸 United States

Lançado Dec 28, 2022 de Cape Canaveral Space Force Station

Loading…

Próximas Passagens (próximas 24 horas)

TLE

AtualizadoSource: CelesTrak SupGP

Época: Sep 15, 2026, 03:02 UTC

1 54870C 22177BC  26258.12687500  .00058509  00000+0  21189-2 0  2582
2 54870  43.0025 131.3942 0001645 271.2771 196.2846 15.27552836    17

Acompanhe STARLINK-5401 em tempo real com AllMySat

Download on the App Store